www.pogodaiklimat.ru

Погода и климат >> Архив погоды >> Россия >> Якутия >> Чокурдах


АРХИВ ПОГОДЫ в Чокурдахе

Время (UTC), дата Ветер
(напр.,м/с)
 
Видим.   Явления Облачность Т
(С)
Тd
(С)
f
(%)
Тe
(С)
Тes
(С)
Комфортность P
(гПа)
Po
(гПа)
Тmin
(С)
Tmax
(С)
R
(мм)
R24
(мм)
S
(см)
00 9.07 Ю 4 50 км 4/0
[Ci fib]
+22.3 +11.3 50 +24 +30 комфорт 1007.6 1000.6
03 9.07 Ю 4 50 км 6/0
[Ac trans Ci fib]
+24.2 +8.4 36 +25 +29 комфорт 1006.7 999.8
06 9.07 Ю 4 50 км 8/0
[Ac und Ci fib]
+23.9 +8.0 36 +24 +27 комфорт 1006.1 999.1
09 9.07 Ю 1 50 км 10/0
[Ac und]
+22.3 +10.4 47 +24 +25 комфорт 1006.2 999.2 +25.1
12 9.07 Ю 2 50 км 10/0
[Ac und]
+20.5 +11.6 57 +23 +23 комфорт 1006.5 999.4
15 9.07 Ю 3 50 км 10/0
[Ac und]
+18.3 +11.1 63 +19 +19 1006.5 999.3
18 9.07 Ю 2 50 км 10/0
[Ac und]
+17.7 +10.6 63 +18 +18 1006.8 999.7
21 9.07 ЮЗ 2 50 км 10/0
[Ac und]
+19.4 +11.7 61 +21 +22 комфорт 1007.4 1000.3 +17.7
00 10.07 ЮЗ 2 50 км 10/0
[Ac trans Ci sp]
+21.3 +12.0 55 +23 +27 комфорт 1007.4 1000.4
03 10.07 Ю 2 50 км 9/3 1000 м
[Cu med, cong Ac trans Ci sp]
+24.7 +11.0 42 +26 +30 жарко 1006.9 999.9
06 10.07 ЮЗ 2 50 км 9/3 1000 м
[Cu med, cong Ac trans Ci sp]
+26.9 +11.5 38 +28 +30 жарко 1006.1 999.2
09 10.07 ЮВ 3 50 км 4/4 1000 м
[Cb calv]
+23.4 +14.0 56 +27 +28 душно 1006.8 999.8 +27.5
12 10.07 ЮЗ 1 50 км 8/0
[Ac cuf]
+21.8 +14.5 63 +25 +25 комфорт 1006.9 999.8
15 10.07 ЮВ 2 50 км 8/0
[Ac trans]
+20.1 +13.6 66 +23 +23 комфорт 1006.6 999.6
18 10.07 ЮВ 1 50 км 4/0
[Ac trans]
+20.4 +11.7 57 +23 +24 комфорт 1006.7 999.6
21 10.07 Ю 2 50 км 4/0
[Ac trans]
+22.6 +13.6 57 +26 +29 жарко 1006.9 999.9 +19.6
00 11.07 Ю 3 50 км 3/0
[Ac trans]
+26.4 +13.0 43 +28 +34 жарко 1006.5 999.5
03 11.07 ЮЗ 3 50 км 6/4 1000 м
[Cu med, cong Ac trans Ci fib]
+28.8 +8.5 28 +28 +32 жарко 1005.6 998.7
06 11.07 З 4 50 км 8/3 1000 м
[Cb calv Ci fib]
+26.5 +12.4 42 +28 +30 жарко 1005.6 998.6
09 11.07 СЗ 5 50 км 9/3 600 м
[Cb calv Ac trans Ci fib]
+26.4 +14.9 49 +29 +29 жарко 1005.8 998.9 +29.5
12 11.07 СЗ 4 20 км слаб. дождь 10/0
[Ac As]
+20.1 +15.6 75 +23 +23 комфорт 1006.8 999.7
15 11.07 З 2 20 км {ливн. осадки} 10/4 600 м
[Cb calv Ac trans]
+17.6 +16.2 91 +18 +18 1007.9 1000.8
18 11.07 С 3 10 км дымка {ливн. осадки} 10/3 300 м
[Sc Ac trans]
+17.2 +15.5 90 +17 +17 1007.9 1000.7
21 11.07 СЗ 6 1000 м дымка {туман} 10/10 60 м
[St]
+15.4 +14.5 94 +14 +14 1010.1 1002.9 +15.2 48
00 12.07 СЗ 6 500 м туман ?/? +12.3 +11.6 95 +10 +10 1011.7 1004.4 +12.3
03 12.07 СЗ 4 10 км {туман} 6/6 480 м
[Sc]
+17.5 +12.0 70 +17 +20 1011.7 1004.5
06 12.07 СЗ 3 50 км 4/0
[Ci fib]
+19.7 +9.2 51 +21 +26 комфорт 1011.2 1004.1
09 12.07 З 1 50 км 3/0
[Ci fib]
+19.4 +9.3 52 +21 +23 комфорт 1010.7 1003.5 +19.8
12 12.07 Ю 3 50 км 10/0
[Ci fib]
+17.5 +11.5 68 +18 +18 1009.6 1002.5
15 12.07 Ю 3 50 км 10/0
[Ci fib]
+14.6 +11.3 81 +14 +14 1008.1 1000.9
18 12.07 Ю 4 50 км 10/0
[Ci fib]
+16.2 +13.0 81 +15 +16 1006.5 999.3
21 12.07 ЮЗ 6
{10}
50 км 10/0
[Ci fib]
+18.6 +13.9 74 +19 +20 1005.3 998.2 +14.2
00 13.07 СЗ 7-11
{11}
50 км 10/0
[Ac trans Ci sp]
+21.4 +14.4 64 +24 +25 комфорт 1006.1 999.0
03 13.07 СЗ 5
{12}
20 км 10/8 300 м
[Sc Ac und]
+14.0 +11.0 82 +12 +13 1008.8 1001.6
06 13.07 З 3 50 км {дождь} 10/3 300 м
[Sc Ac As]
+12.5 +9.7 83 +11 +12 1010.3 1003.0
09 13.07 З 2 50 км 10/5 840 м
[Sc Ac trans]
+13.4 +9.9 79 +13 +13 1010.7 1003.4 +21.5 0.0
12 13.07 С 1 50 км 3/3 600 м
[Sc]
+13.0 +6.8 66 +13 +13 1010.9 1003.6
15 13.07 С 4 50 км 3/3 600 м
[Sc Ci fib]
+7.1 +4.4 83 +4 +4 1011.5 1004.0
18 13.07 СВ 2 50 км 3/3 600 м
[Sc]
+9.7 +6.1 78 +8 +9 1011.0 1003.6
21 13.07 СВ 1 50 км 10/0
[Ac trans Cc]
+13.2 +5.2 58 +14 +17 1010.6 1003.3 +6.9
00 14.07 СВ 2 50 км 10/0
[Ac trans Ci fib]
+14.1 +5.4 56 +14 +18 1009.4 1002.2
03 14.07 СВ 3 20 км слаб. дождь 10/0
[Ac As]
+12.7 +6.7 67 +11 +14 1008.7 1001.5
06 14.07 В 3 50 км в посл. час дождь 10/6 1080 м
[Sc Ac As]
+10.0 +7.4 84 +8 +8 1008.2 1000.9
09 14.07 В 2 20 км слаб. дождь 10/0
[As op]
+9.1 +7.7 91 +7 +8 1007.9 1000.6 +14.7
12 14.07 СВ 2 20 км слаб. дождь 10/0
[Ac As]
+8.9 +7.2 89 +7 +7 1008.3 1000.9
15 14.07 ЮЗ 1 50 км {дождь} 10/6 540 м
[Sc Ac trans]
+8.5 +7.6 94 +8 +8 1008.5 1001.1
18 14.07 З 4 20 км {дождь} 10/10 400 м
[Sc]
+10.1 +9.4 95 +7 +7 1008.4 1001.1
21 14.07 СВ 4 2000 м слаб. морось 10/10 120 м
[St]
+8.7 +7.8 94 +5 +5 1008.8 1001.4 +7.5 1
00 15.07 СЗ 8-11
{11}
2000 м слаб. морось 10/10 210 м
[St]
+6.6 +5.4 92 +1 +1 1010.4 1002.9 +6.6
03 15.07 СЗ 7
{11}
10 км {морось} 8/8 480 м
[Sc]
+7.3 +4.0 80 +3 +3 1010.5 1003.1
06 15.07 З 6
{10}
20 км 8/8 750 м
[Sc]
+9.4 +4.2 70 +6 +6 1010.1 1002.7
09 15.07 З 4 50 км 8/8 930 м
[Sc]
+9.5 +3.1 64 +7 +7 1008.7 1001.3 +10.4
12 15.07 СЗ 12-17
{19}
4000 м слаб. ливневой дождь 10/10 930 м
[Cb cap]
+6.8 +3.7 81 +1 +1 1007.8 1000.4
15 15.07 З 9-13
{17}
20 км 10/10 800 м
[Cb cap]
+6.5 +3.0 78 +1 +1 1007.4 1000.0
18 15.07 З 8-13
{13}
20 км дымка 10/10 360 м
[Sc]
+5.7 +4.2 90 0 0 1006.0 998.5
21 15.07 З 11-15
{16}
2000 м слаб. морось 10/10 270 м
[St]
+5.4 +3.9 90 -1 -1 1004.7 997.3 +5.4 1

 

Местоположение метеостанции Чокурдах (Якутия, Россия): широта 70.62 долгота 147.80 высота над уровнем моря 61 м.

В архиве по умолчанию представлена погода в Чокурдахе за последнюю неделю. Архивные данные за месяц целиком и за предыдущие месяцы, начиная с января 2011 года, Вы можете получить, выбрав интересующий диапазон дат из раскрывающегося списка и нажав кнопку "Ввод!".


*Определитесь, кто Вы:
робот инопланетянин человек

Внимание! Время в таблицах - всемирное. Для получения местного времени необходимо прибавить поправку, которая равна 11 ч.

Смотрите также архив погоды в соседних городах и на ближайших метеорологических станциях:

Погода в Белой Горе (Якутия, Россия) (238 км)
Погода в Андрюшкино (Якутия, Россия) (302 км)
Погода в Депутатском (Якутия, Россия) (334 км)
Погода на Мысе Кигилях (Якутия, Россия) (408 км)
Погода в Среднеколымске (Якутия, Россия) (423 км)
Погода в Юбилейной (Якутия, Россия) (426 км)
Погода в Усть-Куйге (Якутия, Россия) (462 км)
Погода в Колымской (Якутия, Россия) (467 км)
Погода в Усть-Моме (Якутия, Россия) (500 км)
Погода на Проливе Санникова (Якутия, Россия) (537 км)

Пояснения к столбцам:

Ветер - указаны скорость ветра в м/с - средняя за 10 мин, порывы в срок и между сроками (в фигурных скобках) и направление, откуда дует ветер: С - северный, СВ - северо-восточный, В - восточный, ЮВ - юго-восточный, Ю - южный, ЮЗ - юго-западный, З - западный, СЗ - северо-западный.
Видимость - горизонтальная дальность видимости в метрах или километрах. При видимости от 1 до 10 км при отсутствии осадков обычно наблюдается дымка, при ухудшении видимости до 1 км и менее - туман. В сухую погоду видимость может ухудшаться дымом, пылью или мглою.
Явления - указаны атмосферные явления, наблюдавшиеся в срок или в последний час перед сроком; фигурными скобками обозначены явления, наблюдавшиеся между сроками (за 1-3 часа до срока); квадратными скобками обозначены град или гололедные отложения с указанием их диаметра в мм.
Облачность - указаны через наклонную черту общая и нижняя облачность в баллах и высота нижней границы облаков в метрах; квадратными скобками обозначены формы облаков: Ci - перистые, Cs - перисто-слоистые, Cc - перисто-кучевые, Ac - высококучевые, As - высокослоистые, Sc - слоисто-кучевые, Ns - слоисто-дождевые, Cu - кучевые, Cb - кучево-дождевые. Подробнее классификацию облаков см. в Атласе облаков (PDF).
T - Температура воздуха - температура, измеренная на высоте 2 м над землей.
Td - Температура точки росы - температура, при понижении до которой содержащийся в воздухе водяной пар достигнет насыщения.
f - Относительная влажность воздуха - влажноcть воздуха, измеренная на высоте 2 м над землей.
Te - Эффективная температура - температура, которую ощущает одетый по сезону человек в тени. Характеристика душности погоды. При расчете учитывается влияние влажности воздуха и скорости ветра на теплоощущения человека.
Tes - Эффективная температура на солнце - температура, которую ощущает человек, с поправкой на солнечный нагрев. Характеристика знойности погоды. Зависит от высоты солнца над горизонтом, облачности и скорости ветра. Ночью, в пасмурную погоду, а также при ветре 12 м/с и более поправка равна нулю.
P - Атмосферное давление - приведенное к уровню моря атмосферное давление.
Po - Атмосферное давление - измеренное на уровне метеостанции атмосферное давление.
Tmin - Минимальная температура - минимум температуры воздуха на высоте 2 м над землей.
Tmax - Максимальная температура - максимум температуры воздуха на высоте 2 м над землей.
R - Количество осадков - Количество выпавших осадков за период времени, мм. При наведении курсора мыши на число - период времени, за который выпало указанное количество осадков.
R24 - Количество осадков - Количество выпавших осадков за 24 часа, мм.
S - Снежный покров - Высота снежного покрова, см. При наведении курсора мыши на число - состояние снежного покрова и степень покрытия местности в баллах.